Torna al catalogo

STARLINK-4791

AttivoComunicazioniVLEO
NORAD 53936·PAYLOAD·🇺🇸 United States

Lanciato Sep 24, 2022 da Cape Canaveral Space Force Station

Loading…

Prossimi Passaggi (prossime 24 ore)

TLE

AggiornatoSource: CelesTrak SupGP

Epoca: Sep 15, 2026, 02:06 UTC

1 53936C 22119BC  26258.08798611  .00027638  00000+0  88888-3 0  2580
2 53936  53.1572 154.9716 0001355  86.8532  50.5658 15.31683321    13

Traccia STARLINK-4791 in tempo reale con AllMySat

Download on the App Store